DF1NIF-13 Weather Reports


time (UTC)temp
C
wind
direction
speed
KPH
gust
KPH
rain 1hr
cm
rain 24hr
cm
rain mn
cm
humidity
%
barometer
mb
20260904171028 26 253 4.8 17.7 0.00 0.00 0.00 45 966.1
20260904170553 26 274 4.8 29.0 0.00 0.00 0.00 45 965.9
20260904170108 26 337 11.3 11.3 0.00 0.00 0.00 45 966.1
20260904165639 26 334 1.6 11.3 0.00 0.00 0.00 45 966.2
20260904165158 26 257 3.2 14.5 0.00 0.00 0.00 45 966.0
20260904164723 26 257 11.3 14.5 0.00 0.00 0.00 45 966.1
20260904164253 26 301 11.3 11.3 0.00 0.00 0.00 45 966.4
20260904163809 26 301 8.0 22.5 0.00 0.00 0.00 45 966.3
20260904163327 26 301 8.0 14.5 0.00 0.00 0.00 45 966.2
20260904162838 26 301 3.2 22.5 0.00 0.00 0.00 45 966.2
20260904162353 26 301 3.2 22.5 0.00 0.00 0.00 45 966.3
20260904161928 27 292 3.2 32.2 0.00 0.00 0.00 45 966.4
20260904161453 27 333 3.2 22.5 0.00 0.00 0.00 45 965.9
20260904161038 27 333 6.4 22.5 0.00 0.00 0.00 45 966.3
20260904160543 27 137 6.4 14.5 0.00 0.00 0.00 45 966.1
20260904160113 27 117 6.4 25.7 0.00 0.00 0.00 45 966.1
20260904155633 27 117 29.0 40.2 0.00 0.00 0.00 45 966.1
20260904155158 27 316 12.9 20.9 0.00 0.00 0.00 45 966.1
20260904154711 27 350 9.7 14.5 0.00 0.00 0.00 43 966.1
20260904154228 27 292 9.7 35.4 0.00 0.00 0.00 43 965.9
20260904153813 27 281 6.4 22.5 0.00 0.00 0.00 43 966.0
20260904153323 27 281 20.9 35.4 0.00 0.00 0.00 44 965.9
20260904152824 27 84 12.9 35.4 0.00 0.00 0.00 44 966.0
20260904152418 27 84 19.3 17.7 0.00 0.00 0.00 44 966.1
20260904151953 27 7 17.7 20.9 0.00 0.00 0.00 44 965.8
20260904151513 27 337 11.3 40.2 0.00 0.00 0.00 44 965.7
20260904151103 27 161 17.7 25.7 0.00 0.00 0.00 44 966.1
20260904150633 27 351 11.3 25.7 0.00 0.00 0.00 44 966.0
20260904150218 28 241 12.9 20.9 0.00 0.00 0.00 44 966.0
20260904145738 27 241 11.3 14.5 0.00 0.00 0.00 44 966.1
20260904145309 27 2 11.3 43.5 0.00 0.00 0.00 44 965.9
20260904144843 27 186 4.8 17.7 0.00 0.00 0.00 44 966.0
20260904144411 27 103 12.9 32.2 0.00 0.00 0.00 44 966.2
20260904143928 27 56 22.5 11.3 0.00 0.00 0.00 44 966.2
20260904143448 27 314 14.5 11.3 0.00 0.00 0.00 44 966.2
20260904142958 27 326 8.0 11.3 0.00 0.00 0.00 44 966.3
20260904142528 27 326 6.4 40.2 0.00 0.00 0.00 44 966.5
20260904142113 27 313 8.0 35.4 0.00 0.00 0.00 44 966.5
20260904141648 27 139 8.0 40.2 0.00 0.00 0.00 44 966.5
20260904141208 27 139 1.6 22.5 0.00 0.00 0.00 45 966.6
20260904140738 27 304 25.7 14.5 0.00 0.00 0.00 49 966.7
20260904140313 27 182 25.7 25.7 0.00 0.00 0.00 49 966.7
20260904135828 27 302 25.7 25.7 0.00 0.00 0.00 49 966.9
20260904135353 27 68 6.4 14.5 0.00 0.00 0.00 49 967.0
20260904134933 27 187 1.6 14.5 0.00 0.00 0.00 49 966.9
20260904134508 26 238 9.7 53.1 0.00 0.00 0.00 49 966.9
20260904134108 26 238 16.1 53.1 0.00 0.00 0.00 49 967.2
20260904133623 26 175 16.1 29.0 0.00 0.00 0.00 49 967.1
20260904133203 26 305 8.0 29.0 0.00 0.00 0.00 47 967.0
20260904132733 26 105 11.3 29.0 0.00 0.00 0.00 47 967.1
20260904132258 27 340 8.0 25.7 0.00 0.00 0.00 48 967.1
20260904131759 27 182 11.3 22.5 0.00 0.00 0.00 47 967.2
20260904131333 26 332 11.3 32.2 0.00 0.00 0.00 47 967.2
20260904130853 26 303 6.4 32.2 0.00 0.00 0.00 47 967.1
20260904130443 26 231 8.0 22.5 0.00 0.00 0.00 47 967.2
20260904130028 26 234 14.5 40.2 0.00 0.00 0.00 48 967.4
20260904125608 26 291 22.5 25.7 0.00 0.00 0.00 49 967.4
20260904125133 26 344 22.5 43.5 0.00 0.00 0.00 50 967.5
20260904124639 26 308 22.5 35.4 0.00 0.00 0.00 50 967.7
20260904124218 26 319 11.3 22.5 0.00 0.00 0.00 50 967.6
20260904123743 26 110 11.3 35.4 0.00 0.00 0.00 50 968.0
20260904123318 25 110 17.7 46.7 0.00 0.00 0.00 50 968.1
20260904122858 25 318 17.7 25.7 0.00 0.00 0.00 50 968.2
20260904122428 26 322 17.7 32.2 0.00 0.00 0.00 50 968.5
20260904121953 25 317 6.4 8.0 0.00 0.00 0.00 50 968.3
20260904121525 25 331 6.4 29.0 0.00 0.00 0.00 50 968.5
20260904121118 25 331 6.4 25.7 0.00 0.00 0.00 52 968.5
20260904120638 25 304 9.7 8.0 0.00 0.00 0.00 52 968.5
20260904120148 25 125 9.7 40.2 0.00 0.00 0.00 52 968.7
20260904115728 25 125 9.7 32.2 0.00 0.00 0.00 55 968.6
20260904115308 25 257 14.5 37.0 0.00 0.00 0.00 55 968.6
20260904114903 25 257 11.3 20.9 0.00 0.00 0.00 55 968.6
20260904114413 25 257 16.1 22.5 0.00 0.00 0.00 55 968.9
20260904113958 25 257 14.5 49.9 0.00 0.00 0.00 55 968.8
20260904113533 24 283 14.5 14.5 0.00 0.00 0.00 55 968.9
20260904113038 24 251 14.5 35.4 0.00 0.00 0.00 55 968.9
20260904112619 24 288 22.5 49.9 0.00 0.00 0.00 58 968.8
20260904112158 24 327 8.0 22.5 0.00 0.00 0.00 58 968.9
20260904111718 25 343 8.0 32.2 0.00 0.00 0.00 58 968.9
20260904111243 24 343 8.0 4.8 0.00 0.00 0.00 58 969.0
20260904110758 24 343 14.5 20.9 0.00 0.00 0.00 58 969.2
20260904110333 24 178 14.5 14.5 0.00 0.00 0.00 58 969.2
20260904105848 23 95 8.0 25.7 0.00 0.00 0.00 58 969.2
20260904105413 23 111 22.5 17.7 0.00 0.00 0.00 58 969.1
20260904104933 24 111 4.8 17.7 0.00 0.00 0.00 58 969.2
20260904104518 24 127 14.5 40.2 0.00 0.00 0.00 58 969.3
20260904104033 24 197 14.5 17.7 0.00 0.00 0.00 58 969.3
20260904103628 24 146 14.5 22.5 0.00 0.00 0.00 62 969.1
20260904103153 23 146 4.8 17.7 0.00 0.00 0.00 62 969.2
20260904102728 23 343 4.8 22.5 0.00 0.00 0.00 62 969.6
20260904102253 23 343 8.0 29.0 0.00 0.00 0.00 62 969.6
20260904101823 23 337 16.1 22.5 0.00 0.00 0.00 62 969.5
20260904101343 23 156 11.3 35.4 0.00 0.00 0.00 63 969.7
20260904100923 22 137 8.0 35.4 0.00 0.00 0.00 63 969.8
20260904100458 22 175 9.7 29.0 0.00 0.00 0.00 66 969.8
20260904100028 22 315 8.0 32.2 0.00 0.00 0.00 66 970.1
20260904095548 22 308 11.3 22.5 0.00 0.00 0.00 66 970.1
20260904095113 22 308 16.1 25.7 0.00 0.00 0.00 67 970.1
20260904094643 22 330 9.7 35.4 0.00 0.00 0.00 67 970.2
20260904094208 23 330 6.4 14.5 0.00 0.00 0.00 67 970.0
20260904093733 21 330 6.4 20.9 0.00 0.00 0.00 67 970.5
20260904093303 21 39 14.5 37.0 0.00 0.00 0.00 67 970.3
20260904092838 21 292 14.5 32.2 0.00 0.00 0.00 67 970.5
20260904092353 22 292 14.5 32.2 0.00 0.00 0.00 67 970.5
20260904091933 22 292 8.0 35.4 0.00 0.00 0.00 69 970.5
20260904091523 20 147 8.0 22.5 0.00 0.00 0.00 69 970.6
20260904091103 20 318 3.2 29.0 0.00 0.00 0.00 69 970.8
20260904090633 20 351 14.5 17.7 0.00 0.00 0.00 75 970.8
20260904090208 20 10 14.5 25.7 0.00 0.00 0.00 75 970.7
20260904085713 20 249 6.4 14.5 0.00 0.00 0.00 75 970.8
20260904085308 20 161 3.2 14.5 0.00 0.00 0.00 75 970.7
20260904084843 20 161 8.0 14.5 0.00 0.00 0.00 75 970.9
20260904084358 20 198 4.8 4.8 0.00 0.00 0.00 75 970.9
20260904083948 20 143 3.2 22.5 0.00 0.00 0.00 75 971.1
20260904083528 20 175 3.2 8.0 0.00 0.00 0.00 75 971.0
20260904083058 19 175 3.2 11.3 0.00 0.00 0.00 75 971.0
20260904082613 19 138 3.2 4.8 0.00 0.00 0.00 79 971.1
20260904082128 19 38 3.2 8.0 0.00 0.00 0.00 79 971.2
20260904081648 19 38 8.0 8.0 0.00 0.00 0.00 79 971.2
20260904081219 19 340 1.6 1.6 0.00 0.00 0.00 79 971.2
20260904080748 19 340 1.6 11.3 0.00 0.00 0.00 79 971.3
20260904080333 19 340 8.0 11.3 0.00 0.00 0.00 79 971.5
20260904075908 19 103 1.6 8.0 0.00 0.00 0.00 79 971.3
20260904075449 19 103 1.6 17.7 0.00 0.00 0.00 79 971.4
20260904075003 18 103 1.6 4.8 0.00 0.00 0.00 79 971.5
20260904074528 18 103 1.6 11.3 0.00 0.00 0.00 79 971.6
20260904074059 18 103 1.6 1.6 0.00 0.00 0.00 79 971.5
20260904073618 18 325 1.6 11.3 0.00 0.00 0.00 79 971.7
20260904073153 18 352 0.0 11.3 0.00 0.00 0.00 79 971.5
20260904072728 18 171 3.2 14.5 0.00 0.00 0.00 80 971.7
20260904072313 18 289 6.4 8.0 0.00 0.00 0.00 80 971.6
20260904071843 18 289 4.8 17.7 0.00 0.00 0.00 81 971.7
20260904071413 18 289 6.4 17.7 0.00 0.00 0.00 81 971.5
20260904070958 18 349 6.4 11.3 0.00 0.00 0.00 81 971.8
20260904070533 18 146 4.8 11.3 0.00 0.00 0.00 81 971.7
20260904070058 18 259 3.2 8.0 0.00 0.00 0.00 81 971.7
20260904065619 18 259 0.0 4.8 0.00 0.00 0.00 81 971.6
20260904065153 17 259 0.0 4.8 0.00 0.00 0.00 81 971.6
20260904064718 17 310 1.6 4.8 0.00 0.00 0.00 81 971.7
20260904064238 17 242 1.6 8.0 0.00 0.00 0.00 81 971.6
20260904063813 16 196 3.2 8.0 0.00 0.00 0.00 81 971.6
20260904063348 16 196 3.2 4.8 0.00 0.00 0.00 82 971.7
20260904062908 16 196 3.2 4.8 0.00 0.00 0.00 85 971.6
20260904062418 16 196 3.2 4.8 0.00 0.00 0.00 85 971.7
20260904061958 16 4 1.6 8.0 0.00 0.00 0.00 85 971.5
20260904061553 16 4 0.0 0.0 0.00 0.00 0.00 85 971.9
20260904061128 16 4 3.2 0.0 0.00 0.00 0.00 85 971.7
20260904060646 15 4 0.0 0.0 0.00 0.00 0.00 87 971.8
20260904060218 15 4 0.0 1.6 0.00 0.00 0.00 87 971.7
20260904055738 15 4 0.0 1.6 0.00 0.00 0.00 87 971.9
20260904055323 15 4 0.0 1.6 0.00 0.00 0.00 84 972.0
20260904054843 15 4 0.0 0.0 0.00 0.00 0.00 87 971.7
20260904054358 15 4 0.0 1.6 0.00 0.00 0.00 88 971.8
20260904053918 15 351 0.0 1.6 0.00 0.00 0.00 88 971.6
20260904053508 15 342 0.0 1.6 0.00 0.00 0.00 88 971.7
20260904053028 15 63 0.0 1.6 0.00 0.00 0.00 90 971.9
20260904052608 15 63 0.0 1.6 0.00 0.00 0.00 90 971.9
20260904052123 15 63 0.0 1.6 0.00 0.00 0.00 90 971.7
20260904051713 15 63 1.6 1.6 0.00 0.00 0.00 90 971.8
20260904051248 15 63 1.6 1.6 0.00 0.00 0.00 90 971.8
20260904050843 15 63 0.0 1.6 0.00 0.00 0.00 90 972.0
20260904050348 15 63 0.0 1.6 0.00 0.00 0.00 90 971.8
20260904045938 15 63 0.0 1.6 0.00 0.00 0.00 90 971.9
20260904045513 15 63 0.0 0.0 0.00 0.00 0.00 90 971.7
20260904045058 15 63 0.0 0.0 0.00 0.00 0.00 90 971.7
20260904044608 15 148 0.0 0.0 0.00 0.00 0.00 90 971.8
20260904044109 15 148 0.0 1.6 0.00 0.00 0.00 90 971.7
20260904043628 15 148 0.0 0.0 0.00 0.00 0.00 94 971.8
20260904043203 15 148 0.0 0.0 0.00 0.00 0.00 94 971.9
20260904042733 15 148 0.0 1.6 0.00 0.00 0.00 94 972.0
20260904042248 14 148 0.0 1.6 0.00 0.00 0.00 94 972.0
20260904041818 14 149 0.0 1.6 0.00 0.00 0.00 94 972.2
20260904041338 15 336 3.2 0.0 0.00 0.00 0.00 94 972.0
20260904040859 15 336 0.0 1.6 0.00 0.00 0.00 94 972.3
20260904040413 15 336 0.0 1.6 0.00 0.00 0.00 94 972.0
20260904035953 15 336 0.0 0.0 0.00 0.00 0.00 93 972.3
20260904035523 15 336 0.0 0.0 0.00 0.00 0.00 91 972.3
20260904035058 15 336 0.0 1.6 0.00 0.00 0.00 88 972.3
20260904034623 15 336 1.6 1.6 0.00 0.00 0.00 88 972.1
20260904034143 15 336 1.6 1.6 0.00 0.00 0.00 88 972.1
20260904033723 15 10 1.6 1.6 0.00 0.00 0.00 88 972.2
20260904033228 15 125 1.6 1.6 0.00 0.00 0.00 88 971.9
20260904032743 15 125 0.0 0.0 0.00 0.00 0.00 88 972.1
20260904032313 15 125 0.0 0.0 0.00 0.00 0.00 88 972.1
20260904031858 15 122 0.0 4.8 0.00 0.00 0.00 97 972.1
20260904031438 15 142 0.0 1.6 0.00 0.00 0.00 97 972.3
20260904031003 15 175 0.0 1.6 0.00 0.00 0.00 97 972.3
20260904030523 15 175 0.0 1.6 0.00 0.00 0.00 97 972.2
20260904030043 15 233 0.0 1.6 0.00 0.00 0.00 97 972.1
20260904025623 15 359 0.0 4.8 0.00 0.00 0.00 97 972.2
20260904025148 15 359 3.2 4.8 0.00 0.00 0.00 97 972.3
20260904024701 13 359 3.2 8.0 0.00 0.00 0.00 97 972.6
20260904024233 13 248 1.6 1.6 0.00 0.00 0.00 97 972.5
20260904023748 13 143 0.0 4.8 0.00 0.00 0.00 97 972.3
20260904023309 13 143 0.0 4.8 0.00 0.00 0.00 97 972.2
20260904022833 13 143 0.0 4.8 0.00 0.00 0.00 97 972.5
20260904022423 13 143 0.0 4.8 0.00 0.00 0.00 97 972.5
20260904021958 13 143 1.6 4.8 0.00 0.00 0.00 97 972.4
20260904021533 13 143 1.6 4.8 0.00 0.00 0.00 97 972.4
20260904021118 13 95 0.0 4.8 0.00 0.00 0.00 97 972.5
20260904020638 13 95 0.0 0.0 0.00 0.00 0.00 97 972.3
20260904020158 13 95 0.0 0.0 0.00 0.00 0.00 97 972.5
20260904015708 13 95 0.0 0.0 0.00 0.00 0.00 97 972.4
20260904015218 13 95 0.0 1.6 0.00 0.00 0.00 97 972.5
20260904014758 13 95 0.0 1.6 0.00 0.00 0.00 97 972.4
20260904014328 13 95 0.0 1.6 0.00 0.00 0.00 97 972.6
20260904013858 13 95 0.0 1.6 0.00 0.00 0.00 97 972.6
20260904013438 13 95 0.0 1.6 0.00 0.00 0.00 97 972.5
20260904013023 13 95 0.0 1.6 0.00 0.00 0.00 97 972.6
20260904012558 13 95 0.0 1.6 0.00 0.00 0.00 97 972.4
20260904012118 13 95 1.6 0.0 0.00 0.00 0.00 97 972.6
20260904011648 13 95 0.0 1.6 0.00 0.00 0.00 97 972.4
20260904011153 13 95 0.0 1.6 0.00 0.00 0.00 97 972.7
20260904010703 13 95 1.6 1.6 0.00 0.00 0.00 97 972.6
20260904010216 13 95 1.6 1.6 0.00 0.00 0.00 96 972.8
20260904005733 13 95 0.0 1.6 0.00 0.00 0.00 96 972.6
20260904005256 13 95 0.0 1.6 0.00 0.00 0.00 96 972.8
20260904004833 13 95 0.0 0.0 0.00 0.00 0.00 96 972.7
20260904004356 14 95 1.6 1.6 0.00 0.00 0.00 96 972.9
20260904003923 14 95 0.0 1.6 0.00 0.00 0.00 96 972.7
20260904003453 14 95 0.0 1.6 0.00 0.00 0.00 96 972.9
20260904003033 14 95 0.0 1.6 0.00 0.00 0.00 96 972.9
20260904002556 14 95 0.0 1.6 0.00 0.00 0.00 96 973.0
20260904002128 14 95 0.0 1.6 0.00 0.00 0.00 96 972.9
20260904001658 14 95 0.0 1.6 0.00 0.00 0.00 96 973.0
20260904001223 14 95 0.0 1.6 0.00 0.00 0.00 96 972.9
20260904000736 14 95 0.0 1.6 0.00 0.00 0.00 96 973.2
20260904000313 14 96 0.0 1.6 0.00 0.00 0.00 96 973.1
20260903235841 14 96 0.0 1.6 0.00 0.00 0.00 96 973.0
20260903235358 15 96 0.0 1.6 0.00 0.00 0.00 96 973.2
20260903234928 15 96 0.0 1.6 0.00 0.00 0.00 96 973.3
20260903234503 15 96 0.0 0.0 0.00 0.00 0.00 96 973.5
20260903234043 15 96 0.0 0.0 0.00 0.00 0.00 96 973.3
20260903233608 15 96 0.0 0.0 0.00 0.00 0.00 96 973.4
20260903233156 15 96 0.0 0.0 0.00 0.00 0.00 96 973.5
20260903232736 15 96 0.0 0.0 0.00 0.00 0.00 96 973.4
20260903232308 15 96 1.6 0.0 0.00 0.00 0.00 96 973.1
20260903231848 15 96 1.6 0.0 0.00 0.00 0.00 96 973.5
20260903231418 15 96 0.0 0.0 0.00 0.00 0.00 96 973.5
20260903230928 15 96 1.6 0.0 0.00 0.00 0.00 96 973.6
20260903230458 15 96 1.6 0.0 0.00 0.00 0.00 96 973.6
20260903230033 15 96 1.6 0.0 0.00 0.00 0.00 96 973.5
20260903225541 15 300 0.0 0.0 0.00 0.00 0.00 96 973.5
20260903225048 15 300 0.0 1.6 0.00 0.00 0.00 96 973.4
20260903224628 15 300 0.0 1.6 0.00 0.00 0.00 96 973.7
20260903224213 15 300 0.0 1.6 0.00 0.00 0.00 96 973.6
20260903223748 15 300 0.0 1.6 0.00 0.00 0.00 96 973.6
20260903223333 15 300 1.6 1.6 0.00 0.00 0.00 96 973.7
20260903222913 15 300 1.6 1.6 0.00 0.00 0.00 96 973.7
20260903222433 15 300 0.0 0.0 0.00 0.00 0.00 96 973.7
20260903221958 15 300 0.0 0.0 0.00 0.00 0.00 96 973.7
20260903221553 15 300 0.0 0.0 0.00 0.00 0.00 96 973.7
20260903221123 15 300 1.6 1.6 0.00 0.00 0.00 96 973.8
20260903220713 15 300 1.6 1.6 0.00 0.00 0.00 96 973.5
20260903220228 15 306 1.6 4.8 0.00 0.00 0.00 96 973.4
20260903215808 15 306 3.2 8.0 0.00 0.00 0.00 96 973.6
20260903215336 15 306 0.0 1.6 0.00 0.00 0.00 96 973.5
20260903214901 15 332 0.0 1.6 0.00 0.00 0.00 96 973.6
20260903214423 15 332 0.0 1.6 0.00 0.00 0.00 96 973.4
20260903213956 15 332 0.0 1.6 0.00 0.00 0.00 96 973.7
20260903213536 16 110 0.0 0.0 0.00 0.00 0.00 96 973.6
20260903213116 16 106 0.0 0.0 0.00 0.00 0.00 96 973.7
20260903212633 16 106 0.0 0.0 0.00 0.00 0.00 96 973.6
20260903212153 16 106 0.0 0.0 0.00 0.00 0.00 96 973.5
20260903211718 16 106 0.0 0.0 0.00 0.00 0.00 96 973.5
20260903211248 16 106 0.0 0.0 0.00 0.00 0.00 96 973.7
20260903210756 16 106 0.0 0.0 0.00 0.00 0.00 96 973.7
20260903210323 16 106 0.0 0.0 0.00 0.00 0.00 96 973.8
20260903205843 16 106 1.6 0.0 0.00 0.00 0.00 96 973.8
20260903205408 16 106 0.0 0.0 0.00 0.00 0.00 96 973.8
20260903204936 16 106 0.0 0.0 0.00 0.00 0.00 94 974.0
20260903204453 16 106 0.0 1.6 0.00 0.00 0.00 94 974.0
20260903204019 16 106 0.0 1.6 0.00 0.00 0.00 94 973.8
20260903203616 16 106 1.6 1.6 0.00 0.00 0.00 94 973.7
20260903203128 16 106 1.6 1.6 0.00 0.00 0.00 94 973.7
20260903202713 16 106 0.0 1.6 0.00 0.00 0.00 94 973.8
20260903202253 16 106 0.0 1.6 0.00 0.00 0.00 94 973.9
20260903201843 16 106 0.0 1.6 0.00 0.00 0.00 94 973.7
20260903201356 16 106 0.0 1.6 0.00 0.00 0.00 94 973.8
20260903200916 16 106 0.0 1.6 0.00 0.00 0.00 94 973.3
20260903200508 16 106 0.0 1.6 0.00 0.00 0.00 94 973.5
20260903200043 16 106 0.0 0.0 0.00 0.00 0.00 94 973.5
20260903195553 16 106 0.0 0.0 0.00 0.00 0.00 94 973.3
20260903195116 16 106 0.0 0.0 0.00 0.00 0.00 94 973.3
20260903194658 16 106 0.0 0.0 0.00 0.00 0.00 94 973.3
20260903194233 16 106 0.0 0.0 0.00 0.00 0.00 94 973.5
20260903193748 16 106 0.0 0.0 0.00 0.00 0.00 94 973.3
20260903193256 16 106 0.0 0.0 0.00 0.00 0.00 94 973.4
20260903192843 16 106 0.0 0.0 0.00 0.00 0.00 94 973.5
20260903192422 16 106 0.0 0.0 0.00 0.00 0.00 93 973.6
20260903192013 16 106 0.0 0.0 0.00 0.00 0.00 94 973.6
20260903191533 16 106 0.0 0.0 0.00 0.00 0.00 94 973.6
20260903191058 16 106 0.0 0.0 0.00 0.00 0.00 90 973.6
20260903190628 16 106 0.0 1.6 0.00 0.00 0.00 90 973.4
20260903190213 16 106 0.0 1.6 0.00 0.00 0.00 90 973.6
20260903185758 16 106 0.0 1.6 0.00 0.00 0.00 90 973.6
20260903185336 16 106 0.0 0.0 0.00 0.00 0.00 90 973.6
20260903184913 16 106 0.0 0.0 0.00 0.00 0.00 90 973.6
20260903184443 16 106 0.0 0.0 0.00 0.00 0.00 90 973.5
20260903183953 16 106 0.0 0.0 0.00 0.00 0.00 90 973.6
20260903183456 16 106 0.0 0.0 0.00 0.00 0.00 90 973.5
20260903183018 16 106 0.0 0.0 0.00 0.00 0.00 90 973.6
20260903182533 16 106 0.0 0.0 0.00 0.00 0.00 90 973.6
20260903182059 16 106 0.0 0.0 0.00 0.00 0.00 90 973.6
20260903181623 16 106 0.0 0.0 0.00 0.00 0.00 90 973.6
20260903181156 16 106 0.0 0.0 0.00 0.00 0.00 90 973.3
20260903180743 16 106 0.0 0.0 0.00 0.00 0.00 90 973.5
20260903180308 16 106 1.6 1.6 0.00 0.00 0.00 90 973.5
20260903175856 16 106 0.0 0.0 0.00 0.00 0.00 90 973.2
20260903175407 16 106 0.0 1.6 0.00 0.00 0.00 90 973.4
20260903174938 16 106 0.0 1.6 0.00 0.00 0.00 90 973.5
20260903174513 16 106 0.0 0.0 0.00 0.00 0.00 90 973.6
20260903174033 16 99 0.0 0.0 0.00 0.00 0.00 90 973.3
20260903173603 16 99 0.0 0.0 0.00 0.00 0.00 90 973.3
20260903173143 16 99 0.0 0.0 0.00 0.00 0.00 90 973.3
20260903172703 16 99 1.6 1.6 0.00 0.00 0.00 90 973.1
20260903172236 16 99 1.6 1.6 0.00 0.00 0.00 90 973.3
20260903171806 16 99 1.6 1.6 0.00 0.00 0.00 90 973.2